Regional Weather Roundup
Issued by NWS

Home | Current Version | Previous Version | Text Only | Print | Product List | Glossary Off
Versions: 1 2 3 4 5 6 7 8 9 10 11 12 13 14 15 16 17 18 19 20 21 22 23 24 25 26 27 28 29 30 31 32 33 34 35 36 37 38 39 40 41 42 43 44 45 46 47 48 49 50

000
ASUS43 KIND 222159
RWRIN

WEATHER ROUNDUP FOR INDIANA
NATIONAL WEATHER SERVICE INDIANAPOLIS IN
500 PM EST THU FEB 22 2018

NOTE: "FAIR" INDICATES FEW OR NO CLOUDS BELOW 12,000 FEET WITH NO
SIGNIFICANT WEATHER AND/OR OBSTRUCTIONS TO VISIBILITY.

* - STATION DOES NOT REPORT WEATHER SUCH AS PRECIPITATION OR FOG.

+ - STATION NOT QUALITY CONTROLLED BY THE NATIONAL WEATHER SERVICE.
    USE DATA WITH CAUTION...ESPECIALLY DEWPOINT AND RELATIVE
    HUMIDITY OBSERVATIONS.

INZ001>003-010>013-019-020-222300-
NORTHWEST INDIANA

CITY           SKY/WX    TMP DP  RH WIND       PRES   REMARKS
GARY /AIRPORT/ CLOUDY    39  34  81 E7        30.43S WCI  34
MONTICELLO +   CLOUDY    44  39  83 E15G21    30.38R
RENSSELAER +   CLOUDY    43  36  75 E16       30.38F

$$

LMZ046-743>745-222300-
SOUTHERN LAKE MICHIGAN

STATION/POSITION TIME  TEMP    WIND        PRES    WAVE
                       AIR SEA DIR/SP/G            HT
                 (UTC) (F)     (DEG/KT/KT) (MB)    (FT)
BURNS HARBOR     2140   42     100/  8/ 14 1030.5F
MICHIGAN CITY    2130   42      70/ 13/ 15   N/A

$$

INZ004-005-014>016-021>024-222300-
NORTH CENTRAL INDIANA

CITY           SKY/WX    TMP DP  RH WIND       PRES   REMARKS
ELKHART        PTSUNNY   41  32  70 E12G17    30.44F
GOSHEN         PTSUNNY   41  34  76 E15G24    30.43F
PERU/GRISSOM   CLOUDY    43  43  99 E16G22    30.37F
SOUTH BEND     PTSUNNY   43  32  65 E10       30.43S
WARSAW +       CLOUDY    39  34  81 MISG      30.41F

$$

INZ006>009-017-018-025>027-222300-
NORTHEAST INDIANA

CITY           SKY/WX    TMP DP  RH WIND       PRES   REMARKS
AUBURN +       CLOUDY    37  34  87 E12       30.45F WCI  30
FORT WAYNE     CLOUDY    39  36  89 E15       30.43F WCI  31
KENDALLVILLE + CLOUDY    37  34  87 E13G21    30.44F WCI  29

$$

INZ028-029-035-036-043>045-051>053-222300-
WEST CENTRAL INDIANA

CITY           SKY/WX    TMP DP  RH WIND       PRES   REMARKS
GREENCASTLE +  CLOUDY    43  39  87 SE7       30.34F
LAFAYETTE      CLOUDY    45  41  86 E12       30.36R
TERRE HAUTE    CLOUDY    45  41  86 E10       30.34S

$$

INZ030>032-037>040-046>048-054>057-064-065-222300-
CENTRAL INDIANA

CITY           SKY/WX    TMP DP  RH WIND       PRES   REMARKS
COLUMBUS       CLOUDY    45 N/A N/A E9        30.37F
GREENWOOD *+   CLOUDY    42 -47   1 E12       30.35F
INDIANAPOLIS   CLOUDY    44  40  85 E14       30.34F
-EAGLE CREEK   CLOUDY    45  39  79 E14       30.34F
KOKOMO +       CLOUDY    43  40  89 E17       30.37F
MT COMFORT *+  CLOUDY    45  43  93 E17       30.35F
SHELBYVILLE    CLOUDY    46  40  79 E18       30.34F
ZIONSVILLE +   CLOUDY    43  41  91 E12       30.35F

$$

INZ033-034-041-042-049-050-058-059-222300-
EAST CENTRAL INDIANA

CITY           SKY/WX    TMP DP  RH WIND       PRES   REMARKS
MUNCIE         CLOUDY    47  41  80 E15G21    30.37F
RICHMOND +     CLOUDY    43  41  93 E13       30.39F

$$

INZ060-061-067>069-081>083-085>088-222300-
SOUTHWEST INDIANA

CITY           SKY/WX    TMP DP  RH WIND       PRES   REMARKS
EVANSVILLE     CLOUDY    50  49  96 SE6       30.31F
HUNTINGBURG +  CLOUDY    50  47  89 E6        30.32F

$$

INZ062-063-066-070>080-084-089>092-222300-
SOUTH CENTRAL AND SOUTHEAST INDIANA

CITY           SKY/WX    TMP DP  RH WIND       PRES   REMARKS
BLOOMINGTON    CLOUDY    45  42  89 E10       30.32F
FRENCH LICK *+ CLOUDY    46 N/A N/A E9        30.32S
MADISON *+     CLOUDY    45  43  93 E8        30.36F
SEYMOUR +      CLOUDY    46  43  87 E7        30.35F

$$




USA.gov is the U.S. government's official web portal to all federal, state and local government web resources and services.